Retour au catalogue

YUNHAI 3-02

ActifScienceSSO
NORAD 59343·PAYLOAD·🇨🇳 China

Lancé Mar 26, 2024 depuis Taiyuan Satellite Launch Center

Loading…

Prochains Passages (prochaines 24 heures)

TLE

FraisSource: Space-Track

Époque: Sep 14, 2026, 14:27 UTC

1 59343U 24058A   26257.60238624 -.00000013  00000-0  16527-4 0  9996
2 59343  98.8241 264.2167 0001917 102.6978 257.4409 14.13331768127375

Suivez YUNHAI 3-02 en temps réel avec AllMySat

Download on the App Store